Location: downtown San Diego
(32.7310°N, 117.1990°W)
Time: 04:22:56
(UTC-07:00)

NOSS 3-1 (C) - Pass Details

Date: 14 June 2018
Orbit: 803 x 1406 km, 63.4° (Epoch: 10 July)

Event Time Altitude Azimuth Distance (km) Brightness Sun altitude
Rises 20:31:29 0° 211° (SSW) 3,306 6.3 -6.9°
Reaches altitude 10° 20:33:49 10° 212° (SSW) 2,399 5.6 -7.3°
Maximum altitude 20:39:18 81° 300° (WNW) 875 3.4 -8.2°
Drops below altitude 10° 20:45:25 10° 28° (NNE) 2,664 5.9 -9.3°
Sets 20:48:08 0° 30° (NNE) 3,699 6.6 -9.7°
